Regional Weather Roundup
Issued by NWS

Home | Current Version | Previous Version | Graphics & Text | Print | Product List | Glossary On
Versions: 1 2 3 4 5 6 7 8 9 10 11 12 13 14 15 16 17 18 19 20 21 22 23 24 25 26 27 28 29 30 31 32 33 34 35 36 37 38 39 40 41 42 43 44 45 46 47 48 49 50
000
ASUS44 KMEG 190600
RWRTN
TENNESSEE HOURLY STATE WEATHER ROUNDUP
NATIONAL WEATHER SERVICE MEMPHIS TN
1200 AM CST THU JAN 19 2017

TNZ002-004-019-021-049-052-054-088>092-190700-
WEST TENNESSEE

CITY           SKY/WX    TMP DP  RH WIND       PRES   REMARKS
MEMPHIS INTL   CLOUDY    53  51  93 N7        29.99S
NWS MEMPHIS      N/A     52 N/A N/A MISG        N/A
JACKSON        CLOUDY    50  48  93 NE5       30.02F
DYERSBURG      CLOUDY    48  43  81 E8        30.01F
UNION CITY     CLOUDY    46  46 100 CALM      30.04F
PARIS          CLOUDY    45  41  87 CALM      30.05F
$$

TNZ008-025-027-028-033-062-065-066-190700-
NORTH MIDDLE TENNESSEE

CITY           SKY/WX    TMP DP  RH WIND       PRES   REMARKS
NASHVILLE      CLOUDY    46  42  86 E5        30.06F
CLARKSVILLE    CLOUDY    46  40  79 SE3       30.08F
SMYRNA         CLOUDY    45  43  93 CALM      30.08F
CROSSVILLE     PTCLDY    41  40  96 CALM      30.08F
$$

TNZ061-075-076-078-094-096-097-190700-
SOUTH MIDDLE TENNESSEE

CITY           SKY/WX    TMP DP  RH WIND       PRES   REMARKS
TULLAHOMA      MOCLDY    46  43  87 CALM      30.08F
WINCHESTER     CLOUDY    48  46  93 CALM      30.08S
MCMINNVILLE    CLEAR     45  45 100 CALM      30.08S
COLUMBIA       CLOUDY    46  46 100 CALM      30.03F
SHELBYVILLE    PTCLDY    46  46 100 E5        30.07F
$$

TNZ017-018-042-046-047-190700-
NORTHEAST TENNESSEE

CITY           SKY/WX    TMP DP  RH WIND       PRES   REMARKS
TRI CITIES     PTCLDY    38  36  92 CALM      30.11F
$$

TNZ012-013-036-069-073-074-190700-
CENTRAL EAST TENNESSEE

CITY           SKY/WX    TMP DP  RH WIND       PRES   REMARKS
KNOXVILLE      PTCLDY    46  42  86 CALM      30.08S
OAK RIDGE      CLOUDY    46  41  82 CALM      30.11S
GATLINBURG     CLEAR     41  39  93 CALM      30.09S
$$

TNZ083-085-099-190700-
SOUTHEAST TENNESSEE

CITY           SKY/WX    TMP DP  RH WIND       PRES   REMARKS
CHATTANOOGA    PTCLDY    50  44  80 CALM      30.08F
$$

SKY/WX REPORTED AS FAIR MEANS FEW OR NO CLOUDS BELOW
12 THOUSAND FEET.





USA.gov is the U.S. government's official web portal to all federal, state and local government web resources and services.